Date,TemperatureHighF,TemperatureAvgF,TemperatureLowF,DewpointHighF,DewpointAvgF,DewpointLowF,HumidityHigh,HumidityAvg,HumidityLow,PressureMaxIn,PressureMinIn,WindSpeedMaxMPH,WindSpeedAvgMPH,GustSpeedMaxMPH,PrecipitationSumIn
2013-1-1,35.6,27.7,10.4,35.1,27.2,9.9,98,98,98,30.00,29.74,11,2,0,0.00
2013-1-2,30.2,17.9,5.0,29.7,17.4,4.6,98,98,98,30.22,29.95,8,2,0,0.05
2013-1-3,19.4,8.2,-4.0,18.9,7.7,-4.4,98,98,98,30.23,29.91,4,1,0,0.90
2013-1-4,41.0,30.1,17.6,40.5,29.6,17.1,98,98,98,29.91,29.75,6,1,0,0.13
2013-1-5,37.4,31.8,21.2,36.9,30.2,-99.9,98,97,98,30.16,29.83,9,-8,0,0.05
2013-1-6,42.8,33.0,23.0,42.3,32.5,22.5,98,98,98,30.07,29.80,7,1,0,0.01
2013-1-7,35.6,29.3,17.6,35.1,28.7,17.1,98,98,67,30.27,29.88,7,1,0,0.06
2013-1-8,42.8,25.7,12.2,42.3,25.2,11.7,98,98,98,30.22,30.13,5,1,0,1.21
2013-1-9,42.8,29.3,17.6,42.3,28.8,17.1,98,98,98,30.21,29.81,7,2,0,0.00
2013-1-10,33.8,31.4,28.4,33.3,30.9,27.9,98,98,98,30.39,30.36,2,0,0,0.00
2013-1-11,37.4,32.1,26.6,36.9,31.6,26.1,98,98,98,30.36,29.89,7,2,0,0.14
2013-1-12,44.6,40.1,35.6,44.1,39.6,35.1,98,98,98,29.95,29.88,6,2,0,1.43
2013-1-13,44.6,41.6,37.4,44.1,41.1,36.9,98,98,98,29.94,29.74,9,3,0,0.01
2013-1-14,46.4,41.7,33.8,45.9,40.8,32.5,98,97,90,30.14,29.64,11,4,0,0.09
2013-1-15,37.4,33.6,30.2,36.9,32.8,29.7,98,97,89,30.16,30.03,4,1,0,0.07
2013-1-16,33.8,31.8,30.2,33.3,31.3,29.7,98,98,98,30.03,29.63,2,0,0,0.01
2013-1-17,39.2,30.6,23.0,38.7,30.1,22.5,98,98,98,29.98,29.81,11,3,0,1.61
2013-1-18,26.6,20.0,12.2,26.1,19.1,11.4,98,96,84,30.22,29.90,9,2,0,0.00
2013-1-19,50.0,34.7,24.8,44.1,32.0,-46.9,98,94,86,30.04,29.56,11,5,0,1.39
2013-1-20,46.4,37.0,24.8,45.9,36.4,24.3,98,98,89,29.84,29.34,12,4,0,0.01
2013-1-21,28.4,24.1,19.4,26.1,21.0,16.6,98,88,75,29.88,29.62,7,2,0,0.00
2013-1-22,23.0,17.3,10.4,22.5,16.8,9.9,98,98,98,29.94,29.60,7,3,0,0.00
2013-1-23,14.0,7.5,1.4,13.5,7.1,1.0,98,98,98,30.04,29.93,12,2,0,0.00
2013-1-24,19.4,8.6,-0.4,18.9,8.2,-0.8,98,98,98,30.18,29.97,13,3,0,0.00
2013-1-25,21.2,13.9,5.0,20.7,13.5,4.6,98,98,98,30.22,29.88,8,2,0,0.00
2013-1-26,12.2,9.8,6.8,11.7,9.3,6.4,98,98,98,29.96,29.87,3,0,0,0.97
2013-1-27,30.2,26.1,19.4,29.7,25.6,18.9,98,98,98,30.31,30.26,4,2,0,0.00
2013-1-28,32.0,31.6,30.2,31.5,31.1,29.7,98,98,98,29.82,29.75,4,1,0,0.00
2013-1-29,39.2,32.9,28.4,38.7,32.6,18.9,98,97,98,29.94,29.77,11,2,0,0.57
2013-1-30,53.6,44.2,39.2,53.0,43.7,38.7,98,98,98,29.82,29.13,10,5,0,0.15
2013-1-31,53.6,40.9,28.4,53.0,40.4,27.9,98,98,98,29.46,28.70,11,4,0,0.80
2013-2-1,30.2,25.8,21.2,29.7,25.3,20.7,98,98,98,29.94,29.66,11,4,0,0.02
2013-2-2,28.4,24.2,21.2,27.9,23.7,20.7,98,98,98,29.90,29.85,3,1,0,0.00
2013-2-3,32.0,24.4,17.6,31.5,23.5,17.1,98,97,84,29.88,29.61,5,1,0,0.00
2013-2-4,28.4,22.6,14.0,27.9,21.7,13.5,98,96,85,29.80,29.61,10,2,0,2.34
2013-2-5,32.0,24.4,19.4,31.5,23.5,17.9,98,96,87,29.86,29.74,5,1,0,0.04
2013-2-6,35.6,30.9,26.6,35.1,30.4,26.1,98,98,98,30.14,29.94,9,4,0,0.00
2013-2-7,28.4,24.1,19.4,27.9,23.5,18.2,98,98,95,30.30,30.25,3,1,0,0.00
2013-2-8,30.2,28.8,28.4,29.7,28.3,27.9,98,98,98,29.92,29.69,4,2,0,0.00
2013-2-9,21.2,15.3,8.6,20.7,14.8,8.2,98,98,98,30.22,29.82,7,3,0,0.73
2013-2-10,35.6,16.4,-0.4,35.1,16.0,-0.8,98,98,95,30.37,30.12,5,1,0,0.02
2013-2-11,41.0,33.7,17.6,40.5,33.2,17.1,98,98,98,30.12,29.50,12,4,0,0.24
2013-2-12,39.2,35.9,32.0,38.7,35.4,31.5,98,98,97,29.79,29.53,8,2,0,0.00
2013-2-13,44.6,35.1,32.0,38.2,32.9,30.1,98,92,76,29.75,29.57,5,1,0,1.24
2013-2-14,44.6,38.0,32.0,38.2,33.7,30.3,98,85,72,29.79,29.74,6,2,0,0.01
2013-2-15,44.6,39.9,35.6,41.6,36.7,32.7,96,88,85,29.81,29.77,6,1,0,0.00
2013-2-16,35.6,32.5,30.2,34.6,31.7,28.3,98,97,86,29.85,29.74,7,3,0,0.05
2013-2-17,26.6,21.5,14.0,26.1,18.5,11.9,98,88,75,29.74,29.53,15,7,0,0.04
2013-2-18,32.0,26.9,21.2,27.9,21.6,16.6,98,81,70,30.03,30.01,8,3,0,0.01
2013-2-19,35.6,35.6,35.6,35.1,35.1,35.1,98,98,98,29.59,29.52,8,4,0,0.00
2013-2-20,32.0,27.6,26.6,27.7,26.2,23.8,98,95,82,29.76,29.60,8,4,0,0.00
2013-2-21,26.6,26.6,26.6,26.1,25.2,24.1,98,94,90,29.76,29.75,5,3,0,0.00
2013-2-22,35.6,33.9,32.0,31.5,30.2,28.9,91,86,78,30.15,30.12,4,1,0,0.00
2013-2-23,35.6,35.1,33.8,35.1,34.6,33.3,98,98,98,29.97,29.78,7,3,0,0.00
2013-2-24,41.0,36.3,32.0,40.5,35.8,31.5,98,98,98,29.78,29.62,7,2,0,0.04
2013-2-25,41.0,37.4,35.6,36.9,34.9,31.5,98,91,75,30.06,30.01,1,0,0,0.00
2013-2-26,42.8,38.1,35.6,42.3,37.6,35.1,98,98,98,30.03,29.92,5,1,0,0.00
2013-2-27,42.8,39.4,37.4,42.3,38.9,36.9,98,98,98,29.46,29.39,8,2,0,0.31
2013-2-28,44.6,40.5,35.6,44.1,40.0,35.1,98,98,98,29.45,29.39,3,0,0,0.13
2013-3-3,33.8,29.8,26.6,33.3,29.3,26.1,98,98,98,29.61,29.54,10,5,0,0.01
2013-3-4,32.0,30.6,28.4,31.5,30.1,27.9,98,98,98,29.74,29.65,11,4,0,0.00
2013-3-5,42.8,34.8,30.2,35.6,32.0,29.0,98,90,59,29.93,29.88,4,2,0,0.00
2013-3-6,39.2,38.2,37.4,36.9,33.1,29.2,98,82,72,29.97,29.91,6,3,0,0.01
2013-3-7,41.0,34.7,32.0,36.9,32.1,27.3,98,91,62,30.01,29.95,8,3,0,0.04
2013-3-8,42.8,37.0,32.0,42.3,36.5,31.5,98,98,98,30.13,29.98,7,2,0,0.45
2013-3-9,55.4,44.8,30.2,36.9,30.3,25.3,98,61,31,30.21,30.13,8,3,0,0.22
2013-3-10,55.4,46.5,28.4,42.3,33.1,27.9,98,63,36,30.20,30.04,9,4,0,0.00
2013-3-11,50.0,48.3,46.4,49.5,47.8,45.9,98,98,98,29.92,29.87,12,6,0,0.00
2013-3-12,53.6,42.3,41.0,53.0,41.8,40.5,98,98,98,29.71,29.53,8,4,0,0.33
2013-3-13,51.8,47.9,42.8,38.8,36.6,33.7,70,65,61,29.63,29.63,5,2,0,0.02
2013-3-15,39.2,32.4,21.2,38.7,29.6,20.7,98,90,73,29.76,29.51,6,2,0,0.00
2013-3-16,33.8,32.8,32.0,33.3,32.2,31.5,98,98,98,29.71,29.65,4,2,0,0.00
2013-3-17,37.4,31.8,23.0,36.9,31.3,22.5,98,98,98,30.11,29.92,6,3,0,0.00
2013-3-18,37.4,34.0,30.2,36.9,33.5,29.7,98,98,98,30.09,30.02,6,3,0,0.00
2013-3-19,37.4,33.7,30.2,36.9,33.2,29.7,98,98,98,29.64,29.54,4,1,0,0.30
2013-3-20,41.0,34.7,28.4,33.3,27.0,22.7,98,75,54,29.65,29.61,5,2,0,0.00
2013-3-21,41.0,32.4,15.8,18.0,15.4,13.7,98,50,39,29.64,29.49,6,3,0,0.04
2013-3-22,35.6,35.6,35.6,35.1,35.1,35.1,98,98,98,29.57,29.57,0,0,0,0.00
2013-3-24,50.0,39.7,32.0,35.1,28.8,24.6,98,68,41,29.64,29.60,6,2,0,0.00
2013-3-25,46.4,37.9,30.2,33.3,31.0,29.7,98,78,54,29.62,29.36,9,2,0,0.07
2013-3-26,48.2,41.3,33.8,31.8,25.2,21.8,86,54,37,29.68,29.59,3,0,0,0.00
2013-3-27,55.4,47.4,41.0,39.4,33.2,30.5,94,60,41,29.79,29.68,10,4,0,0.04
2013-3-28,50.0,46.4,42.8,44.1,40.0,36.8,98,79,66,29.93,29.85,7,3,0,0.00
2013-3-29,51.8,48.2,46.4,36.2,35.1,34.1,65,60,55,29.92,29.91,9,4,0,0.00
2013-3-30,59.0,50.8,41.0,42.3,28.4,23.7,98,45,28,29.99,29.90,6,3,0,0.01
2013-3-31,57.2,51.3,44.6,47.8,36.4,27.9,98,60,39,29.87,29.60,12,6,0,0.03
2013-4-1,51.8,41.1,32.0,51.3,34.2,21.2,98,78,52,29.72,29.41,10,5,0,0.02
2013-4-2,32.0,32.0,32.0,31.5,27.1,22.7,98,83,68,29.87,29.86,4,3,0,0.00
2013-4-3,33.8,32.3,32.0,19.7,18.6,17.3,60,57,54,30.11,30.06,5,3,0,0.00
2013-4-4,51.8,50.9,50.0,23.4,22.8,22.1,35,33,31,29.88,29.87,6,3,0,0.00
2013-4-5,59.0,53.5,48.2,31.4,27.4,25.0,41,36,33,29.68,29.63,14,6,0,0.00
2013-4-7,60.8,52.2,42.8,30.0,25.8,20.6,56,37,29,29.94,29.74,17,8,0,0.42
2013-4-8,66.2,58.7,53.6,43.7,37.9,33.1,69,47,31,29.97,29.86,4,1,0,0.00
2013-4-11,44.6,38.2,33.8,35.1,29.7,24.0,98,74,47,29.99,29.93,10,4,0,0.09
2013-4-12,41.0,38.3,33.8,40.5,37.8,33.3,98,98,98,29.87,29.62,6,2,0,0.51
2013-4-13,51.8,48.4,42.8,51.3,47.9,42.3,98,98,98,29.78,29.67,6,1,0,0.00
2013-4-14,50.0,45.8,37.4,41.5,32.2,29.3,97,60,51,30.05,29.91,10,4,0,0.00
2013-4-15,60.8,57.2,51.8,41.4,39.6,37.9,59,52,44,30.14,30.08,6,3,0,0.00
2013-4-16,60.8,59.2,57.2,60.2,58.6,56.6,98,98,98,29.93,29.86,12,7,0,0.06
2013-4-17,68.0,61.3,51.8,67.4,59.7,48.1,98,94,82,30.13,30.08,9,3,0,0.00
2013-4-18,68.0,60.7,55.4,51.7,48.1,44.2,86,63,56,30.03,29.94,11,7,0,0.00
2013-4-19,71.6,69.7,55.4,71.0,69.1,54.8,98,98,98,29.51,29.38,10,6,0,0.01
2013-4-20,53.6,45.0,41.0,35.9,31.9,30.2,65,60,51,30.04,29.81,8,5,0,0.00
2013-4-21,51.8,50.4,48.2,27.6,25.8,24.4,41,38,35,30.46,30.44,6,4,0,0.00
2013-4-22,62.6,58.2,53.6,30.8,29.5,28.2,38,34,27,30.36,30.34,4,3,0,0.00
2013-4-23,53.6,53.6,53.6,48.9,47.0,45.2,84,78,73,30.11,30.09,4,3,0,0.00
2013-4-24,73.4,72.0,69.8,72.8,71.4,69.2,98,98,98,29.60,29.54,12,5,0,0.00
2013-4-25,62.6,52.5,42.8,62.0,52.0,42.3,98,98,98,30.10,30.03,7,2,0,1.22
2013-4-26,62.6,53.0,42.8,62.0,52.4,42.3,98,98,98,30.29,30.24,7,2,0,0.00
2013-4-28,77.0,70.2,59.0,76.4,69.6,58.4,98,98,98,30.14,29.95,7,2,0,0.00